#timestamp,LO_Frequency,Hit,StdDev 
1502287215.2,286047000.2,N,1.1
1502287235.1,286047000.2,N,1.1
1502287236.0,286047000.2,N,1.1
1502287255.8,286047002.6,N,1.1
1502287275.6,286047002.3,N,1.1
1502287295.5,286047001.9,N,1.1
1502287315.3,286047003.9,Y,0.0
1502287335.2,286047011.9,P,5.4
1502287355.9,286047000.2,N,5.3
1502287375.7,286047002.3,N,4.7
1502287395.6,286047000.3,N,4.4
1502287415.4,286047002.3,N,4.1
1502287435.3,286047000.1,N,3.9
1502287455.1,286047002.6,N,3.6
1502287475.8,286047000.2,N,3.5
1502287495.7,286047000.1,N,3.4
1502287515.5,286047000.4,N,3.3
1502287535.4,286047000.1,N,3.2
1502287555.2,286047000.5,N,3.1
1502287575.0,286046999.8,N,3.0
1502287575.9,286046999.8,N,2.9
1502287595.8,286047000.3,N,2.9
1502287615.6,286047002.6,N,2.8
1502287635.5,286047002.1,N,2.7
1502287655.3,286047000.2,N,2.7
1502287675.1,286047000.3,N,2.6
1502287695.9,286046999.7,N,2.6
1502287715.7,286047002.4,N,2.5
1502287735.5,286046999.8,N,2.5
1502287755.4,286047000.2,N,2.4
1502287775.2,286047002.7,N,2.4
1502287795.1,286047001.9,N,2.4
1502287796.0,286047001.9,N,2.3
1502287815.8,286047004.3,N,2.3
1502287835.6,286047004.3,N,2.4
1502287855.5,286047002.2,N,2.3
1502287875.3,286047002.4,N,2.3
1502287895.2,286047004.4,N,1.4
1502287915.9,286047001.7,N,1.4
1502287935.7,286047001.7,N,1.4
1502287955.6,286047004.0,N,1.5
1502287975.4,286047004.3,N,1.6
1502287995.3,286047001.4,N,1.5
1502288015.1,286047004.4,N,1.6
1502288016.0,286047004.4,N,1.7
1502288035.8,286047001.3,N,1.6
1502288055.7,286047001.4,N,1.6
1502288075.5,286047001.4,N,1.6
1502288095.3,286047004.4,N,1.6
1502288115.2,286047001.3,N,1.6
1502288135.0,286047004.4,N,1.6
1502288135.9,286047004.4,N,1.6
1502288155.8,286047004.0,N,1.6
1502288175.6,286047004.3,N,1.6
1502288195.4,286047001.7,N,1.6
1502288215.3,286047004.3,N,1.5
1502288235.1,286047004.2,N,1.5
1502288255.9,286047003.0,N,1.5
1502288275.7,286047003.2,N,1.3
1502288295.5,286047003.0,N,1.2
1502288315.4,286047005.7,Y,0.0
1502288335.2,286047001.7,P,0.7
1502288355.1,286047002.0,N,0.6
1502288356.0,286047002.0,P,0.5
1502288375.8,286047002.2,Y,0.0
1502288395.6,286046998.1,P,2.0
1502288415.5,286047001.2,N,1.7
1502288435.3,286047000.7,N,1.5
1502288455.2,286047000.5,N,1.4
1502288475.9,286047001.0,N,1.2
1502288495.7,286047001.0,N,1.2
1502288515.6,286047000.6,N,1.1
1502288535.4,286047000.6,N,1.0
1502288555.3,286047000.3,N,1.0
1502288575.1,286047000.3,N,0.9
1502288595.8,286047000.5,N,0.9
1502288615.7,286047002.8,Y,0.0
1502288635.5,286047001.0,P,0.2
1502288655.4,286046998.2,P,1.2
1502288675.2,286046998.3,N,1.3
1502288695.0,286047001.1,N,1.3
1502288695.9,286047001.1,N,1.3
1502288715.8,286047000.7,N,1.2
1502288735.6,286047000.9,N,1.2
1502288755.5,286046998.6,N,1.2
1502288775.3,286047001.2,N,1.2
1502288795.1,286047000.6,N,1.1
1502288815.9,286046998.1,N,1.2
1502288835.7,286047001.2,N,1.2
1502288855.6,286047001.1,N,1.2
1502288875.4,286046998.1,N,1.3
1502288895.2,286046998.6,N,1.3
1502288915.1,286046998.1,N,1.3
1502288916.0,286046998.1,N,1.4
1502288935.8,286046998.8,N,1.3
1502288955.7,286047000.8,N,1.3
1502288975.5,286046998.2,N,1.3
1502288995.3,286046998.6,N,1.3
1502289015.2,286046998.4,N,1.3
1502289035.0,286047001.1,N,1.3
1502289035.9,286047001.1,N,1.3
1502289055.8,286046998.2,N,1.3
1502289075.6,286047001.2,N,1.3
1502289095.4,286047000.9,N,1.3
1502289115.3,286047000.9,N,1.3
1502289135.1,286047000.8,N,1.3
1502289155.9,286047000.8,N,1.3
1502289175.7,286046998.1,N,1.3
1502289195.5,286047000.8,N,1.3
1502289215.4,286047000.7,N,1.3
1502289235.2,286047000.6,N,1.3
1502289255.0,286047000.7,N,1.3
1502289256.0,286047000.7,N,1.3
1502289275.8,286047000.4,N,1.3
1502289295.6,286047001.0,N,1.3
1502289315.5,286047000.0,N,1.2
1502289335.4,286047000.0,N,1.2
1502289355.2,286046999.9,N,1.2
1502289375.0,286047000.4,N,1.2
1502289376.0,286047000.4,N,1.2
1502289395.8,286046999.9,N,1.1
1502289415.6,286046999.9,N,1.1
1502289435.5,286047001.1,N,1.0
1502289455.3,286046998.1,N,1.0
1502289475.1,286047001.1,N,1.0
1502289495.9,286046998.6,N,1.1
1502289515.7,286046998.3,N,1.0
1502289535.6,286047001.1,N,1.0
1502289555.4,286047000.8,N,1.0
1502289575.2,286046998.5,N,1.0
1502289595.1,286046998.7,N,1.0
1502289596.0,286046998.7,N,1.0
1502289615.8,286047000.9,N,1.0
1502289635.7,286047000.9,N,1.0
1502289655.5,286047000.9,N,1.0
1502289675.3,286047001.2,N,1.0
1502289695.2,286047000.9,N,1.0
1502289715.0,286047000.4,N,0.9
1502289715.9,286047000.4,N,0.9
1502289735.8,286047002.7,N,1.0
1502289755.6,286046999.9,N,1.0
1502289775.4,286046999.9,N,1.0
1502289795.3,286047002.6,N,1.1
1502289815.1,286046999.8,N,1.1
1502289835.8,286047002.4,N,1.2
1502289855.7,286047002.4,N,1.2
1502289875.5,286047001.7,N,1.3
1502289895.4,286047002.0,N,1.3
1502289915.2,286046999.8,N,1.3
1502289935.0,286047000.0,N,1.3
1502289935.9,286047000.0,N,1.3
1502289955.8,286047000.5,N,1.3
1502289975.6,286047000.3,N,1.3
1502289995.5,286047000.0,N,1.2
1502290015.3,286047000.4,N,1.2
1502290035.1,286047000.3,N,1.1
1502290055.9,286046999.8,N,1.1
1502290075.7,286047002.7,N,1.1
1502290095.6,286046999.8,N,1.2
1502290115.4,286046999.8,N,1.1
1502290135.2,286047002.8,N,1.1
1502290155.1,286046999.9,N,1.0
1502290156.0,286046999.9,N,1.1
1502290175.8,286047000.3,N,1.1
1502290195.7,286046999.7,N,1.1
1502290215.5,286047002.3,N,1.1
1502290235.3,286047002.2,N,1.1
1502290255.2,286047002.6,N,1.2
1502290275.0,286047001.4,N,1.2
1502290275.9,286047001.4,N,1.1
1502290295.8,286047002.1,N,1.1
1502290315.6,286047001.4,N,1.1
1502290335.4,286047004.4,Y,0.0
1502290355.3,286047002.4,P,0.7
1502290375.1,286047002.3,P,0.6
1502290395.9,286047001.9,N,0.5
1502290415.7,286047002.4,Y,0.0
1502290435.5,286046999.4,P,1.3
1502290455.4,286046998.7,N,1.4
1502290475.2,286047001.1,N,1.3
1502290495.1,286046998.9,N,1.3
1502290496.0,286046998.9,N,1.2
1502290515.8,286046999.4,N,1.1
1502290535.6,286046999.0,N,1.1
1502290555.5,286046999.0,N,1.1
1502290575.3,286046996.6,Y,0.0
1502290595.2,286046997.0,P,1.3
1502290615.9,286046997.4,N,1.1
1502290635.7,286046997.7,N,1.0
1502290655.6,286046997.8,N,0.9
1502290675.4,286046999.0,N,0.9
1502290695.3,286046996.9,Y,0.0
1502290715.1,286046999.2,P,0.6
1502290735.8,286046997.3,P,0.8
1502290755.7,286046997.3,P,0.8
1502290775.5,286046996.5,Y,0.0
1502290795.4,286047000.8,P,1.4
